Torna al catalogo

STARLINK-4712

AttivoComunicazioniVLEO
NORAD 53798·PAYLOAD·🇺🇸 United States

Lanciato Sep 11, 2022 da Cape Canaveral Space Force Station

Loading…

Prossimi Passaggi (prossime 24 ore)

TLE

AggiornatoSource: CelesTrak SupGP

Epoca: Sep 14, 2026, 21:42 UTC

1 53798C 22111AB  26257.90465278 -.00078467  00000+0 -25219-2 0  2573
2 53798  53.1575 131.9224 0001367  85.4963 307.2549 15.31758075    17

Traccia STARLINK-4712 in tempo reale con AllMySat

Download on the App Store